KBYS/BYS METAR and TAF weather

Enter ICAO airport designator
Station Type Date Time Source
KBYS METAR 2019/12/13 13:58 UTC NOAA

KBYS 131358Z AUTO 00000KT 10SM CLR 03/01 A3019 RMK AO2 SLP225 T00270013 $


Station Type Date Time Source
KBYS Decoded METAR 2019/12/13 13:58 UTC NOAA

Fort Irwin/Barstow, Bicycle Lake Army Airfield, CA, United States (KBYS) 35-17N 116-37W 716M
Dec 13, 2019 - 08:58 AM EST / 2019.12.13 1358 UTC
Wind: Calm:0
Visibility: 10 mile(s):0
Sky conditions: clear
Temperature: 36.9 F (2.7 C)
Dew Point: 34.3 F (1.3 C)
Relative Humidity: 90%
Pressure (altimeter): 30.19 in. Hg (1022 hPa)
ob: KBYS 131358Z AUTO 00000KT 10SM CLR 03/01 A3019 RMK AO2 SLP225 T00270013
cycle: 14

Station Type Date Time Source
KBYS TAF 2011/12/24 07:07 UTC NOAA

TAF KBYS 250707 04010G15KT 9999 FEW250 QNH3014INS
BECMG 1213 06010KT 9999 FEW250 QNH3014INS
BECMG 1819 08010KT 9999 FEW250 QNH3023INS T14/23Z T02/14Z
BECMG 0001 VRB05KT 9999 FEW250 QNH3018INS
BECMG 0607 27005KT 9999 FEW200 QNH3014INS
BECMG 1213 27010KT 9999 SCT200 SCT200 QNH3014INS
BECMG 1819 27010G15KT 9999 SCT200 QNH3023INS T15/23Z T03/14Z
BECMG 0001 27010G15KT 9999 SCT200 QNH3018INS
BECMG 0607 27010KT 9999 FEW200 QNH3014INS
BECMG 1213 27010KT 9999 FEW200 QNH3014INS
BECMG 1819 29010G15KT 9999 FEW250 QNH3023INS T16/23Z T04/14Z
BECMG 0001 33010G15KT 9999 FEW250 QNH3018INS
BECMG 0607 33010KT 9999 SCT250 QNH3014INS
BECMG 1213 36010KT 9999 SCT250 QNH3014INS
BECMG 1819 02010KT 9999 SCT250 QNH3023INS T16/23Z T05/14Z
BECMG 0001 04010KT 9999 SCT250 QNH3018INS
BECMG 0607 04010KT 9999 FEW250 QNH3014INS
BECMG 1213 04010KT 9999 FEW250 QNH3014INS
BECMG 1819 04010G15KT 9999 FEW250 QNH3023INS T16/23Z T05/14Z
BECMG 0001 04010G15KT 9999 FEW250 QNH3018INS

Example: see airport list